Temperature
14 15 15 15 12 11 12 13 15 17 17 19 19 19 17 17 18 17 16 16 16 16 16 16 16 16 16 16 16 16 16 16 16 15 15 15 15 15 15 15 15 15 15 15 15 15 15 15 15
14 15 15 15 11 11 12 13 15 17 18 19 19 18 17 16 16 16 16 16 16 16 16 15 15 16 16 16 16 16 15 15 15 15 15 15 15 15 15 15 15 15 15 15 15 15 15 14 14
14 14 15 11 11 11 14 15 15 17 19 19 18 18 17 16 16 16 16 16 16 15 15 15 15 15 16 16 15 15 15 15 15 15 15 15 15 15 15 15 15 15 14 14 14 14 14 14 14
14 14 14 10 12 12 14 16 16 16 18 19 18 16 16 16 16 16 16 16 16 15 15 15 15 15 15 15 15 15 15 15 15 15 15 15 15 14 14 14 14 14 14 14 14 14 14 14 14
14 14 11 11 12 12 13 15 16 16 17 18 17 15 15 16 16 16 16 16 16 15 15 15 15 15 15 15 15 15 15 15 15 15 15 14 14 14 14 14 14 14 14 14 14 14 14 14 14
13 11 10 10 12 13 14 17 17 16 16 17 17 15 15 15 16 16 16 16 15 15 15 15 15 15 15 15 15 15 15 15 15 15 14 14 14 14 14 14 14 14 14 14 14 14 14 13 13
12 9 10 11 12 13 15 17 16 15 15 17 17 14 14 15 15 15 15 15 15 15 15 14 14 14 14 14 14 15 15 14 14 14 14 14 14 14 14 14 14 14 14 14 14 13 13 13 13
13 9 11 11 13 14 15 17 17 17 16 17 17 14 14 15 15 14 14 14 14 14 14 14 14 14 14 14 14 14 14 14 14 14 14 14 14 14 14 14 14 14 14 14 13 13 13 13 13
13 9 10 11 13 14 15 16 16 17 17 16 16 17 16 15 14 14 14 14 14 14 14 14 14 14 14 14 14 14 14 14 14 14 14 14 14 14 14 14 14 14 14 14 13 13 13 13 13
12 9 10 12 13 14 15 15 16 16 15 15 15 16 15 15 14 14 14 14 14 14 14 13 13 13 13 13 13 13 13 13 13 14 14 13 14 14 14 13 13 13 13 13 13 13 13 13 12
10 9 11 13 14 14 14 15 15 14 13 14 15 15 15 14 14 14 14 14 14 14 14 13 13 13 13 13 13 13 13 13 13 13 13 13 13 13 13 13 13 13 13 13 13 13 12 12 12
10 10 12 13 14 14 14 14 14 14 15 16 16 15 14 14 14 14 14 14 14 13 13 13 13 13 13 13 13 13 13 13 13 13 13 13 13 13 13 13 13 13 13 13 12 12 12 12 12
10 11 12 13 13 14 13 13 13 14 15 15 15 15 14 14 14 14 14 14 13 13 13 13 13 13 13 13 13 13 13 13 13 13 13 13 13 13 13 13 13 13 13 12 12 12 12 12 12
10 11 12 12 13 13 12 12 12 13 15 14 14 14 14 14 14 14 13 13 13 13 13 13 13 13 13 13 13 13 13 13 12 13 13 13 13 13 13 13 13 13 12 12 12 12 11 11 11
11 10 10 11 11 12 12 11 11 13 14 13 14 14 14 14 14 14 13 13 13 13 13 13 12 12 12 12 12 12 12 12 12 12 12 12 12 12 12 12 12 12 12 12 11 11 11 11 11
10 9 9 10 11 11 11 10 11 13 13 12 13 13 13 13 13 13 13 13 13 13 13 12 12 12 12 12 12 12 12 12 12 12 12 12 12 12 12 12 12 12 11 11 11 11 11 10 10
8 8 8 9 10 10 10 9 10 13 12 12 12 12 13 13 13 13 13 13 13 13 12 12 12 12 12 12 12 12 12 12 12 12 12 12 12 12 12 12 12 11 11 11 11 10 10 10 10
7 7 8 9 10 9 9 9 10 12 11 11 11 12 12 12 13 13 13 13 13 12 12 12 12 12 12 11 11 11 11 11 11 11 11 11 11 11 11 11 11 11 11 10 10 10 10 10 9
8 8 8 9 10 9 9 9 10 10 10 10 10 10 11 11 12 12 12 12 12 12 12 12 11 11 11 11 11 11 11 11 11 11 11 11 11 11 11 11 11 11 11 10 10 10 9 9 9
7 7 7 8 9 9 8 9 9 9 9 9 10 10 10 11 11 12 12 12 12 12 12 11 11 11 11 11 11 11 11 11 11 11 11 11 11 11 11 11 11 10 10 10 10 10 9 9 9
7 7 7 8 8 9 8 8 8 8 9 9 10 10 10 10 11 11 11 11 11 11 11 11 11 11 11 11 10 10 10 10 10 10 10 10 10 10 10 10 10 10 10 10 10 10 10 9 9
6 7 7 7 7 6 7 6 7 7 8 8 8 9 9 10 10 11 11 11 10 11 11 11 11 11 10 10 10 10 10 10 10 10 10 10 10 10 10 10 10 10 10 10 10 9 9 9 9
6 7 7 7 6 6 6 6 6 6 7 7 7 8 9 9 10 10 10 10 10 10 10 10 10 10 10 10 10 10 10 10 10 10 10 10 10 10 10 10 10 10 9 9 9 9 9 9 9
6 6 6 5 5 5 5 5 5 5 6 7 7 8 8 9 9 9 10 10 10 10 10 10 10 10 10 10 10 10 10 10 10 9 9 9 9 9 9 9 9 9 9 9 9 9 9 9 8
5 4 4 4 4 5 5 5 5 5 6 6 6 6 7 7 8 8 9 9 9 9 9 9 9 9 9 9 9 9 9 9 9 9 9 9 9 9 9 9 9 9 9 9 9 8 8 8 8
4 4 4 4 4 4 5 4 5 4 5 5 6 6 6 6 7 7 8 8 8 8 8 9 9 9 9 9 9 9 9 9 9 9 9 9 9 9 9 9 9 8 8 8 8 8 8 8 8
3 3 4 3 3 3 4 4 4 4 4 4 4 5 5 5 6 6 7 7 7 8 8 8 8 8 8 8 8 8 8 8 8 8 8 8 8 8 8 8 8 8 8 8 8 8 8 7 7
3 3 2 2 3 4 4 3 3 3 3 3 2 3 3 4 5 5 6 6 7 7 7 7 7 8 8 8 8 8 8 8 8 8 8 8 8 8 8 8 8 8 8 7 7 7 7 7 7
1 1 1 1 2 3 3 2 2 2 2 2 2 2 2 3 3 4 4 5 5 6 6 6 7 7 7 7 7 7 7 7 7 7 7 7 7 7 7 7 7 7 7 7 7 7 7 7 7
1 1 1 1 1 1 1 1 2 1 1 1 1 1 2 2 2 3 3 4 4 5 5 5 6 6 6 6 6 6 6 6 7 7 7 7 7 7 7 7 7 7 7 7 7 7 7 6 6
Wind_Speed
4 4 3 4 5 4 4 6 4 3 3 3 1 5 7 5 4 5 4 8 12 12 14 16 16 16 15 15 14 14 13 13 13 13 12 13 13 13 13 13 12 12 12 13 13 13 13 13 13
2 2 4 5 5 3 6 6 7 7 5 2 2 4 5 3 3 7 6 10 14 13 14 15 16 16 15 15 14 14 13 13 13 12 12 12 12 13 13 13 12 12 12 13 13 13 13 12 12
2 2 4 4 5 7 7 6 8 5 4 3 2 3 4 5 5 6 7 13 13 11 13 15 17 16 15 15 14 14 14 13 13 12 12 12 12 12 12 12 12 12 13 13 12 13 12 12 11
3 4 4 3 6 7 6 5 4 3 1 1 4 4 2 1 5 7 12 13 13 10 13 15 16 16 15 15 14 14 13 13 12 12 12 11 12 12 12 12 12 13 13 13 12 12 12 11 11
4 4 3 2 6 6 6 6 4 3 3 2 5 5 1 3 6 12 13 13 13 9 11 14 16 16 15 15 14 13 13 12 12 12 11 11 11 12 12 12 12 12 12 12 12 11 11 11 10
4 4 3 5 6 5 5 5 4 3 3 2 5 5 2 1 8 10 12 11 11 10 11 13 15 16 15 15 14 14 13 12 12 11 11 11 11 11 12 12 12 11 11 11 11 11 10 10 10
5 4 5 6 5 5 5 4 6 5 4 4 6 6 2 3 5 9 10 10 10 10 9 10 12 14 15 14 14 13 13 12 12 11 11 11 11 11 11 12 11 11 11 10 10 9 9 9 9
5 4 4 5 5 6 4 3 4 6 5 3 6 8 6 6 6 8 9 9 8 8 8 8 10 11 12 12 13 13 12 12 11 11 11 11 11 11 11 12 11 11 10 10 9 9 8 8 9
5 3 6 6 6 5 3 3 2 2 4 2 2 5 6 9 9 10 8 7 7 8 7 7 8 9 11 11 11 12 11 11 10 10 11 10 9 9 10 11 11 10 10 9 9 8 8 8 8
5 6 9 6 5 4 3 3 4 2 2 1 2 2 6 10 11 11 10 10 10 9 8 7 8 8 9 9 9 9 9 9 9 10 10 10 9 9 9 10 11 10 9 9 8 8 7 7 7
7 8 6 6 5 3 3 3 3 5 5 6 7 8 10 9 10 11 10 10 10 10 9 8 8 8 8 7 8 7 8 8 9 10 11 10 9 8 8 8 8 8 7 6 6 6 6 7 7
5 7 6 5 5 3 4 3 3 6 8 7 9 12 12 11 11 11 11 9 8 8 8 8 8 8 8 8 7 7 7 6 7 9 11 10 7 6 6 6 6 6 6 5 5 5 5 6 6
9 6 6 7 5 5 4 5 4 6 7 5 7 9 12 12 11 10 9 8 8 8 8 8 8 8 8 7 6 7 7 7 8 9 10 10 7 5 6 5 6 6 6 6 5 5 4 4 5
6 7 7 6 7 5 6 7 5 9 5 6 8 10 10 11 11 9 8 8 8 9 8 8 9 8 8 6 6 6 7 8 8 8 10 11 9 7 6 5 5 6 7 7 6 5 4 4 4
3 5 8 8 7 6 4 8 11 11 6 7 8 9 9 9 9 10 10 10 10 9 8 8 9 8 8 7 7 7 8 9 7 8 10 11 10 9 7 5 5 6 7 8 6 5 5 4 4
2 4 8 8 7 7 8 13 11 7 8 9 8 8 8 8 9 9 9 8 8 8 8 8 8 8 8 7 6 6 7 8 7 9 10 11 11 11 8 6 5 7 8 7 5 4 4 3 3
4 7 9 7 7 6 9 10 8 6 9 10 9 8 8 8 8 8 9 9 9 9 9 8 7 8 8 7 6 6 6 6 7 8 8 10 11 11 9 6 6 8 6 5 5 4 4 4 3
9 8 8 9 5 7 9 11 8 5 8 10 8 7 7 8 9 7 8 8 8 8 8 9 8 7 7 6 5 4 4 4 5 6 7 9 10 11 9 6 7 8 5 4 4 4 4 4 4
6 7 10 8 5 6 10 12 10 8 6 7 6 6 7 8 7 6 6 7 7 7 7 8 8 7 7 5 5 5 5 4 4 5 7 9 10 10 9 6 6 6 5 6 6 4 4 3 4
9 10 10 7 5 6 9 12 8 7 6 7 8 8 7 6 4 5 5 6 7 8 8 8 9 9 8 6 5 4 4 3 3 4 5 8 9 10 9 7 6 6 6 6 6 5 4 2 3
11 11 9 7 4 4 4 8 7 5 5 5 6 7 6 8 8 7 6 6 7 8 8 8 8 9 8 6 5 4 3 3 2 3 4 5 8 9 9 9 7 7 7 7 7 7 6 4 2
11 8 7 7 5 6 4 6 8 6 6 7 7 6 7 7 7 7 7 7 7 7 7 7 8 8 8 8 7 8 6 5 5 4 4 4 7 8 9 9 9 8 6 7 7 6 5 6 4
6 5 6 6 6 6 5 5 7 3 6 7 6 6 7 6 6 6 6 7 6 6 6 6 6 7 8 9 9 8 5 5 3 3 4 5 4 6 8 9 8 7 6 7 7 6 6 5 5
2 2 3 2 3 8 10 8 6 4 7 5 5 5 5 5 5 4 4 4 4 4 5 5 6 7 8 9 9 9 8 6 6 5 5 5 4 4 5 7 7 7 6 7 7 7 8 7 6
2 2 1 2 5 7 6 6 6 3 3 4 3 3 2 2 2 2 3 4 4 4 5 5 6 5 7 8 8 8 8 8 8 7 6 6 4 4 6 6 6 6 7 7 7 7 7 8 7
4 5 5 5 5 3 3 6 4 2 3 3 1 1 1 1 1 1 3 4 4 5 5 5 6 5 6 8 8 7 7 6 5 6 6 6 5 5 6 6 6 7 7 7 7 6 6 6 7
2 3 2 2 2 2 3 2 2 7 8 7 6 5 4 2 2 1 1 2 3 4 4 5 5 4 5 7 7 6 7 6 6 5 5 5 4 4 6 6 6 6 7 7 7 6 7 6 7
0 0 1 2 3 4 3 1 2 6 8 8 8 7 6 5 5 3 2 2 1 1 2 2 4 4 4 5 6 5 6 6 6 5 5 5 5 4 5 6 6 6 5 6 6 5 6 6 6
3 2 1 1 2 3 3 0 3 4 5 6 6 7 6 6 6 5 4 3 3 2 2 2 2 2 2 3 4 5 5 5 5 5 5 5 4 5 5 6 6 6 6 5 6 6 6 7 6
1 1 1 1 2 1 2 0 6 6 7 8 8 8 8 7 6 7 6 6 5 4 2 1 1 1 2 2 3 4 4 5 5 5 5 5 5 5 5 5 6 5 5 6 6 7 7 7 7
Wind_Direction
328 358 79 63 64 67 228 239 230 244 215 207 173 123 125 125 150 165 146 142 136 146 152 150 147 145 142 139 136 134 132 130 129 128 128 127 126 124 123 120 116 114 111 108 106 104 103 102 100
1 45 63 67 107 171 250 239 227 227 214 172 113 104 96 88 95 118 132 144 139 143 148 150 149 147 144 141 139 137 135 133 131 129 129 129 128 126 124 121 117 113 110 107 107 107 106 105 104
358 76 90 93 151 190 220 228 217 228 240 191 115 80 112 137 137 147 156 143 135 139 145 152 151 150 148 145 143 142 138 136 134 132 130 129 129 127 121 118 116 112 109 108 108 110 108 107 105
67 56 64 107 215 224 216 230 203 178 235 145 124 85 66 82 161 151 142 138 136 138 145 152 152 152 150 149 147 146 144 141 139 137 134 132 132 130 123 119 116 113 110 109 110 112 110 108 105
66 87 104 222 236 244 239 238 204 180 184 167 124 117 62 345 120 132 139 138 138 139 145 151 153 153 151 151 149 147 148 147 145 142 139 135 132 129 126 123 119 117 115 113 113 114 114 110 105
71 85 137 220 239 253 250 228 189 185 191 168 126 122 173 131 128 139 141 140 140 142 144 152 155 155 153 153 153 151 150 151 149 147 144 141 136 131 132 128 124 122 120 119 117 115 113 111 107
126 132 189 209 230 249 241 206 178 179 180 190 150 131 168 187 157 141 138 136 136 138 140 145 152 155 156 155 154 154 154 152 152 150 148 143 138 136 135 134 132 129 125 123 120 117 114 110 108
144 139 206 216 215 236 232 192 187 171 189 186 140 151 186 199 163 133 128 131 135 138 141 144 147 149 151 154 156 157 157 155 154 153 148 144 139 138 138 136 138 135 131 127 123 118 113 107 105
121 130 215 213 203 232 220 188 221 171 131 112 134 174 185 155 139 129 129 132 143 149 150 147 146 147 149 152 159 159 157 156 151 148 146 141 135 135 137 139 139 138 135 132 127 122 114 107 104
145 198 220 216 205 217 228 199 191 135 139 141 69 73 126 143 146 150 158 162 163 165 165 160 154 152 152 157 154 154 156 154 148 145 142 138 136 138 140 142 142 141 139 138 133 125 116 108 102
181 207 216 237 241 234 233 227 202 159 210 204 184 164 151 157 159 164 170 173 174 171 169 168 163 159 155 148 152 151 150 151 152 152 148 141 135 134 134 133 138 138 136 131 129 118 114 111 109
204 230 216 231 228 229 231 219 217 204 217 203 181 164 161 169 177 178 178 176 172 170 174 172 164 160 160 154 155 155 151 153 154 158 155 145 137 134 140 139 140 137 135 129 122 116 115 113 116
229 242 233 238 239 237 243 237 226 237 234 190 173 168 175 180 187 190 184 177 168 174 178 177 167 165 163 157 161 161 161 163 164 162 160 156 149 150 150 148 147 147 144 140 131 125 122 115 115
227 238 252 245 238 232 229 251 233 246 215 185 182 190 194 192 189 183 182 182 180 181 181 178 173 168 162 164 165 165 166 166 165 165 166 163 158 156 154 152 153 154 155 154 146 137 125 117 114
232 250 268 245 225 222 203 262 236 236 199 198 201 201 202 203 193 189 187 185 186 183 178 178 178 169 166 167 168 166 168 164 164 167 167 165 161 159 156 156 159 163 160 152 139 127 117 113 109
231 231 249 245 205 203 181 245 245 224 194 212 213 204 205 208 202 199 192 186 183 177 175 180 179 172 171 168 165 160 163 164 165 165 166 166 164 162 153 153 159 160 153 148 140 136 128 122 117
223 229 233 251 211 190 196 241 250 215 197 214 216 211 207 212 211 207 198 190 182 176 173 176 173 173 174 167 159 155 157 159 162 163 164 167 166 163 156 154 155 154 145 146 151 142 142 135 122
217 222 229 224 220 193 215 241 258 240 207 218 219 216 213 214 218 207 200 193 181 175 171 172 170 172 166 157 146 145 151 155 157 163 166 166 166 164 156 153 155 151 144 144 143 142 137 137 132
225 228 241 240 231 210 230 244 251 250 226 221 220 214 213 221 223 203 192 185 174 170 168 171 169 170 163 160 161 163 172 169 170 171 171 168 166 165 159 156 157 156 159 160 150 136 132 127 129
249 251 256 272 251 225 245 253 252 241 226 217 217 220 218 220 221 201 188 177 173 176 177 175 175 171 172 174 170 164 159 165 176 173 176 177 171 169 168 162 167 164 157 155 156 142 139 145 149
248 240 241 246 280 259 265 275 251 242 232 235 228 219 210 205 208 202 190 188 179 179 181 183 181 174 171 164 146 127 107 103 149 180 190 188 177 173 171 170 167 167 165 169 170 163 152 163 186
250 245 246 242 237 254 204 258 263 237 241 244 241 227 218 214 208 200 189 185 187 190 184 178 178 175 170 163 163 165 173 179 190 187 190 191 180 176 174 173 172 171 170 172 177 173 161 161 174
246 259 247 244 225 245 226 227 268 225 239 250 244 231 224 219 209 201 194 188 185 180 177 176 172 175 172 169 171 172 177 183 169 166 180 188 186 180 175 175 174 174 176 179 179 174 171 171 175
263 306 295 256 190 236 221 201 261 220 222 247 242 231 227 217 206 198 186 165 165 165 165 167 169 181 177 173 174 177 178 174 167 175 183 189 191 186 181 179 178 178 180 182 183 181 180 184 183
25 112 214 227 214 234 193 191 245 251 245 232 232 236 242 213 184 177 165 159 161 164 166 168 173 183 183 179 180 183 183 179 181 182 186 186 189 194 193 187 185 184 185 184 181 182 187 188 188
244 194 199 214 216 251 186 204 239 327 350 5 10 38 37 75 115 148 173 170 170 171 172 170 176 182 185 184 185 184 180 181 187 185 185 190 196 199 190 188 188 187 186 186 182 187 193 192 195
237 231 222 201 221 223 228 249 338 17 15 17 22 29 29 20 45 79 117 144 160 169 178 179 176 178 187 187 182 181 181 181 185 185 184 188 193 190 183 184 184 186 187 187 182 193 197 193 197
338 250 71 185 198 218 217 207 337 356 354 7 20 19 11 17 28 40 58 72 109 149 158 163 171 177 180 181 182 185 184 185 180 178 183 186 189 182 179 180 184 186 187 187 185 192 194 193 198
15 27 354 242 231 199 195 229 5 5 4 9 18 22 20 22 22 22 34 49 49 52 74 102 149 158 168 179 178 173 177 178 173 177 184 185 183 178 182 183 183 188 190 188 191 197 193 197 200
92 52 50 215 277 254 172 239 358 20 20 19 12 15 19 22 23 26 31 38 42 41 41 61 97 146 187 185 176 175 173 171 173 180 183 179 180 183 184 180 182 188 192 192 194 200 198 201 202
Height
1508 1509 1511 1513 1518 1528 1527 1518 1509 1504 1503 1501 1501 1500 1501 1504 1508 1513 1510 1510 1513 1516 1519 1521 1524 1526 1528 1529 1531 1532 1533 1534 1535 1536 1537 1538 1539 1540 1541 1542 1543 1544 1544 1545 1546 1546 1547 1548 1549
1508 1509 1512 1513 1522 1532 1525 1512 1506 1501 1499 1499 1500 1500 1501 1503 1504 1506 1507 1510 1513 1516 1518 1521 1523 1525 1527 1529 1530 1532 1533 1534 1535 1537 1538 1539 1540 1541 1542 1542 1543 1544 1545 1546 1546 1547 1548 1549 1550
1508 1509 1511 1514 1523 1524 1515 1504 1501 1498 1498 1498 1499 1500 1501 1503 1504 1505 1507 1510 1513 1516 1518 1520 1523 1525 1527 1528 1530 1532 1533 1534 1535 1537 1538 1539 1540 1541 1542 1543 1544 1545 1546 1546 1547 1548 1549 1550 1550
1508 1510 1511 1517 1517 1512 1505 1498 1497 1497 1497 1497 1497 1500 1502 1503 1504 1505 1507 1509 1512 1515 1517 1520 1522 1524 1526 1528 1529 1531 1533 1534 1535 1537 1538 1539 1540 1541 1542 1543 1544 1545 1546 1547 1548 1549 1549 1550 1551
1507 1508 1514 1518 1513 1505 1499 1496 1496 1496 1496 1496 1496 1499 1501 1503 1503 1505 1507 1509 1511 1514 1517 1519 1521 1524 1525 1527 1529 1530 1532 1533 1535 1536 1538 1539 1540 1542 1543 1544 1545 1546 1547 1547 1548 1549 1550 1551 1552
1506 1507 1518 1518 1510 1501 1496 1494 1495 1495 1495 1495 1496 1498 1501 1502 1503 1505 1507 1509 1511 1513 1516 1518 1521 1523 1525 1526 1528 1530 1531 1533 1534 1536 1537 1539 1540 1541 1542 1543 1545 1546 1547 1548 1549 1550 1551 1552 1553
1505 1509 1512 1510 1505 1500 1494 1492 1493 1493 1493 1494 1494 1498 1500 1502 1503 1504 1506 1509 1511 1513 1515 1517 1519 1521 1523 1525 1527 1529 1530 1532 1534 1536 1537 1539 1540 1541 1542 1543 1545 1546 1547 1548 1549 1550 1551 1552 1553
1502 1506 1506 1505 1501 1497 1490 1489 1489 1490 1491 1493 1493 1495 1497 1500 1502 1504 1506 1508 1509 1511 1514 1516 1518 1520 1522 1524 1526 1528 1530 1531 1533 1535 1536 1538 1540 1541 1542 1543 1544 1546 1547 1548 1549 1550 1551 1552 1553
1500 1507 1506 1500 1496 1492 1488 1488 1488 1488 1489 1491 1491 1492 1494 1497 1500 1502 1504 1506 1508 1510 1512 1514 1516 1518 1521 1523 1525 1527 1528 1530 1532 1534 1535 1537 1539 1540 1542 1543 1544 1546 1547 1548 1549 1550 1551 1552 1553
1497 1502 1496 1490 1488 1487 1486 1486 1486 1487 1488 1489 1490 1491 1493 1495 1497 1499 1501 1502 1505 1507 1510 1512 1514 1517 1519 1521 1523 1525 1527 1529 1530 1532 1534 1536 1538 1539 1541 1542 1544 1545 1546 1547 1549 1550 1551 1552 1553
1491 1492 1488 1486 1485 1485 1485 1485 1485 1485 1487 1485 1486 1488 1491 1493 1495 1497 1498 1500 1502 1505 1507 1510 1512 1515 1517 1519 1521 1523 1525 1527 1529 1531 1533 1535 1536 1538 1540 1541 1543 1544 1545 1547 1548 1549 1550 1552 1553
1488 1485 1484 1483 1483 1484 1484 1483 1483 1482 1482 1483 1484 1486 1488 1490 1492 1494 1496 1498 1501 1503 1505 1508 1510 1513 1515 1517 1519 1521 1523 1525 1526 1529 1531 1533 1535 1537 1538 1540 1542 1543 1544 1546 1547 1548 1550 1551 1552
1484 1482 1481 1482 1482 1482 1482 1482 1481 1479 1480 1481 1483 1484 1485 1487 1490 1492 1494 1497 1499 1501 1503 1505 1508 1510 1512 1514 1516 1519 1521 1522 1525 1527 1529 1531 1533 1535 1537 1539 1540 1542 1543 1545 1546 1548 1549 1550 1552
1480 1480 1480 1479 1479 1480 1480 1479 1480 1475 1477 1478 1480 1481 1483 1484 1487 1489 1491 1493 1496 1498 1500 1503 1505 1507 1510 1512 1514 1516 1518 1521 1523 1525 1527 1529 1531 1533 1535 1537 1539 1540 1542 1544 1545 1547 1548 1549 1551
1479 1480 1478 1476 1476 1477 1479 1478 1474 1471 1474 1475 1476 1478 1480 1481 1484 1485 1487 1490 1492 1495 1497 1500 1502 1505 1507 1509 1511 1514 1516 1518 1520 1523 1525 1527 1529 1531 1533 1535 1537 1539 1540 1542 1544 1545 1547 1548 1549
1478 1480 1480 1473 1473 1473 1480 1476 1468 1469 1471 1472 1472 1474 1476 1477 1480 1482 1484 1486 1489 1491 1494 1497 1499 1501 1504 1506 1509 1511 1513 1516 1518 1520 1523 1525 1527 1529 1531 1533 1535 1537 1538 1540 1542 1543 1545 1546 1548
1479 1480 1477 1472 1469 1471 1474 1471 1465 1466 1467 1468 1469 1470 1472 1474 1476 1478 1481 1483 1485 1488 1490 1493 1495 1498 1500 1503 1506 1508 1511 1513 1515 1518 1520 1522 1525 1527 1529 1531 1533 1535 1536 1538 1540 1541 1543 1544 1546
1477 1477 1473 1471 1467 1468 1470 1467 1464 1463 1464 1464 1465 1466 1468 1469 1471 1474 1477 1479 1482 1484 1487 1489 1492 1494 1497 1500 1502 1505 1507 1510 1512 1515 1517 1520 1522 1524 1526 1528 1530 1532 1534 1536 1537 1539 1541 1543 1544
1470 1471 1469 1467 1464 1466 1466 1464 1462 1460 1461 1461 1462 1463 1464 1465 1468 1470 1473 1475 1478 1480 1482 1485 1487 1490 1493 1495 1498 1501 1503 1506 1509 1512 1514 1517 1519 1522 1524 1526 1528 1530 1532 1533 1535 1537 1539 1540 1542
1469 1469 1468 1465 1463 1464 1464 1461 1459 1458 1458 1458 1458 1459 1460 1461 1463 1466 1468 1470 1473 1475 1478 1481 1483 1486 1489 1492 1495 1498 1501 1503 1506 1509 1512 1514 1516 1519 1521 1523 1525 1527 1529 1531 1532 1534 1536 1538 1540
1467 1467 1466 1466 1463 1461 1463 1461 1458 1455 1455 1455 1455 1455 1456 1457 1459 1461 1463 1466 1468 1471 1473 1476 1479 1482 1485 1489 1492 1495 1498 1500 1503 1505 1508 1511 1513 1515 1518 1520 1522 1524 1526 1527 1529 1531 1532 1534 1537
1465 1462 1462 1462 1466 1468 1465 1468 1456 1453 1453 1451 1452 1452 1452 1454 1455 1457 1459 1461 1464 1467 1470 1473 1476 1479 1482 1485 1488 1490 1492 1495 1498 1501 1505 1507 1510 1512 1514 1517 1519 1520 1522 1524 1526 1528 1529 1531 1533
1462 1459 1461 1461 1464 1468 1466 1469 1457 1453 1452 1450 1449 1449 1449 1451 1452 1453 1456 1458 1461 1464 1467 1469 1472 1475 1479 1481 1484 1487 1490 1493 1496 1498 1501 1504 1506 1508 1511 1513 1515 1517 1519 1521 1523 1524 1526 1528 1530
1460 1460 1461 1462 1466 1468 1461 1466 1458 1454 1449 1447 1447 1446 1447 1448 1449 1450 1453 1455 1458 1461 1463 1466 1468 1471 1475 1478 1481 1483 1486 1489 1492 1494 1497 1499 1502 1504 1507 1509 1511 1513 1515 1517 1519 1521 1523 1524 1526
1461 1466 1469 1466 1465 1460 1455 1458 1456 1449 1446 1445 1444 1445 1445 1446 1446 1447 1449 1452 1454 1457 1459 1462 1465 1468 1471 1474 1477 1480 1483 1485 1488 1490 1493 1495 1497 1500 1502 1505 1507 1509 1511 1513 1515 1517 1519 1520 1522
1463 1464 1467 1465 1460 1460 1455 1456 1453 1450 1447 1445 1444 1444 1444 1444 1444 1445 1447 1449 1451 1454 1456 1459 1462 1465 1467 1470 1473 1476 1479 1482 1484 1486 1489 1491 1493 1495 1498 1500 1503 1505 1507 1509 1511 1513 1515 1517 1518
1462 1462 1460 1464 1461 1463 1459 1455 1452 1449 1447 1446 1445 1444 1443 1444 1444 1444 1446 1447 1449 1452 1454 1456 1459 1461 1464 1467 1470 1472 1475 1478 1480 1482 1485 1487 1489 1492 1494 1496 1499 1501 1503 1505 1507 1509 1511 1513 1514
1463 1462 1464 1464 1461 1457 1456 1457 1461 1456 1454 1451 1449 1447 1446 1444 1444 1444 1445 1446 1448 1450 1452 1454 1456 1459 1461 1464 1466 1469 1471 1474 1476 1479 1481 1483 1485 1488 1490 1492 1495 1497 1499 1501 1503 1504 1506 1508 1510
1467 1467 1466 1466 1462 1460 1459 1467 1463 1461 1457 1455 1452 1451 1449 1447 1446 1445 1445 1446 1448 1449 1451 1452 1454 1456 1458 1460 1463 1465 1467 1470 1472 1474 1477 1479 1482 1484 1486 1488 1491 1493 1494 1496 1498 1500 1502 1503 1505
1467 1469 1469 1470 1468 1465 1466 1473 1463 1462 1460 1458 1455 1453 1451 1450 1448 1447 1446 1447 1448 1448 1449 1450 1452 1454 1455 1457 1460 1462 1464 1466 1468 1470 1473 1476 1478 1480 1482 1484 1486 1488 1490 1492 1494 1495 1497 1499 1500